WA7ZVY-4 Weather Reports


Display with metric or nautical units.
time (UTC)temp
F
wind
direction
speed
MPH
gust
MPH
rain 1hr
in
rain 24hr
in
rain mn
in
humidity
%
barometer
mb
20260904052616 55 116 5.0 8.0 0.01 0.44 0.28 100 1006.5
20260904052424 55 88 1.0 8.0 0.01 0.44 0.28 100 1006.5
20260904052109 55 96 3.0 8.0 0.01 0.44 0.28 100 1006.5
20260904051907 55 96 3.0 8.0 0.01 0.44 0.28 100 1006.5
20260904051602 55 121 7.0 8.0 0.01 0.44 0.28 100 1006.5
20260904051350 55 121 6.0 8.0 0.01 0.44 0.28 100 1006.5
20260904051055 55 65 2.0 8.0 0.01 0.44 0.28 100 1006.6
20260904050833 55 57 4.0 8.0 0.01 0.44 0.28 100 1006.6
20260904050316 55 0 0.0 8.0 0.01 0.43 0.28 100 1006.7
20260904045759 55 98 1.0 7.0 0.01 0.43 0.28 100 1006.6
20260904045534 55 98 1.0 7.0 0.01 0.43 0.28 100 1006.6
20260904045242 55 0 0.0 7.0 0.01 0.43 0.28 100 1006.7
20260904045027 55 0 0.0 7.0 0.01 0.43 0.28 100 1006.7
20260904044725 55 99 2.0 7.0 0.00 0.43 0.28 100 1006.6
20260904044520 55 126 1.0 7.0 0.00 0.43 0.28 100 1006.7
20260904044208 55 116 6.0 7.0 0.00 0.43 0.28 100 1006.7
20260904044013 55 96 3.0 6.0 0.00 0.43 0.28 100 1006.7
20260904043651 55 0 0.0 6.0 0.00 0.43 0.27 100 1006.7
20260904043506 55 0 0.0 6.0 0.00 0.43 0.27 100 1006.7
20260904043134 55 49 5.0 6.0 0.00 0.43 0.27 100 1006.8
20260904042959 55 49 3.0 6.0 0.00 0.43 0.27 100 1006.8
20260904042617 55 103 4.0 6.0 0.01 0.43 0.27 100 1006.8
20260904042100 56 0 0.0 5.0 0.01 0.43 0.27 100 1006.8
20260904041945 56 0 0.0 5.0 0.01 0.43 0.27 100 1006.8
20260904041543 56 86 4.0 5.0 0.01 0.43 0.27 100 1006.8
20260904041438 56 86 2.0 9.0 0.01 0.43 0.27 100 1006.8
20260904041026 56 0 0.0 9.0 0.01 0.43 0.27 100 1007.0
20260904040931 56 0 0.0 9.0 0.01 0.43 0.27 100 1007.0
20260904040510 56 0 0.0 9.0 0.01 0.47 0.27 100 1006.9
20260904040424 56 0 0.0 9.0 0.01 0.47 0.27 100 1006.9
20260904035952 56 0 0.0 9.0 0.01 0.47 0.27 100 1007.0
20260904035917 56 0 0.0 9.0 0.01 0.47 0.27 100 1006.9
20260904035435 56 0 0.0 6.0 0.01 0.47 0.27 100 1006.8
20260904035410 56 0 0.0 6.0 0.01 0.47 0.27 100 1006.8
20260904034918 56 0 0.0 6.0 0.01 0.47 0.27 100 1006.8
20260904034903 56 0 0.0 6.0 0.01 0.47 0.27 100 1006.8
20260904034356 56 0 0.0 6.0 0.04 0.47 0.27 100 1006.7
20260904033849 56 84 4.0 11.0 0.04 0.47 0.27 100 1006.6
20260904033844 56 0 0.0 11.0 0.04 0.47 0.27 100 1006.6
20260904033342 56 166 6.0 11.0 0.04 0.47 0.27 100 1006.7
20260904033327 56 166 8.0 11.0 0.04 0.47 0.27 100 1006.6
20260904032835 56 0 0.0 11.0 0.04 0.47 0.27 100 1006.6
20260904032810 56 0 0.0 11.0 0.04 0.47 0.27 100 1006.6
20260904032328 56 0 0.0 11.0 0.09 0.47 0.26 100 1006.6
20260904032253 56 173 5.0 11.0 0.09 0.47 0.26 100 1006.6
20260904031822 56 207 7.0 9.0 0.09 0.47 0.26 100 1006.5
20260904031736 56 218 4.0 9.0 0.12 0.47 0.26 100 1006.5
20260904031314 56 0 0.0 9.0 0.12 0.47 0.26 100 1006.5
20260904031219 56 175 4.0 9.0 0.12 0.47 0.26 100 1006.6
20260904030807 56 0 6.0 7.0 0.12 0.47 0.26 100 1006.6
20260904030702 56 189 2.0 4.0 0.13 0.43 0.26 100 1006.6
20260904030300 56 158 2.0 4.0 0.13 0.43 0.26 100 1006.5
20260904030145 56 158 2.0 4.0 0.13 0.43 0.26 100 1006.6
20260904025753 56 170 4.0 9.0 0.20 0.43 0.26 99 1006.6
20260904025628 56 170 4.0 9.0 0.20 0.43 0.26 99 1006.5
20260904025246 56 161 3.0 9.0 0.20 0.43 0.26 99 1006.6
20260904024739 56 193 3.0 9.0 0.20 0.43 0.26 99 1006.5
20260904024554 56 193 3.0 9.0 0.20 0.43 0.26 99 1006.5
20260904024037 56 0 0.0 7.0 0.20 0.43 0.24 99 1006.6
20260904023725 56 100 3.0 7.0 0.21 0.43 0.23 99 1006.6
20260904023520 56 100 3.0 7.0 0.21 0.43 0.23 99 1006.4
20260904023218 56 106 3.0 6.0 0.21 0.43 0.23 98 1006.3
20260904023003 56 106 3.0 6.0 0.21 0.43 0.23 98 1006.4
20260904022711 56 0 0.0 10.0 0.16 0.43 0.23 98 1006.3
20260904022446 56 0 0.0 10.0 0.16 0.43 0.23 98 1006.4
20260904022204 56 173 4.0 10.0 0.16 0.43 0.22 98 1006.4
20260904021929 56 173 8.0 10.0 0.16 0.43 0.21 97 1006.7
20260904021657 56 190 6.0 10.0 0.14 0.43 0.15 97 1006.7
20260904021412 56 218 4.0 10.0 0.14 0.43 0.15 97 1006.5
20260904021150 56 184 6.0 10.0 0.14 0.43 0.14 97 1006.6
20260904020643 56 198 6.0 17.0 0.13 0.29 0.14 96 1006.7
20260904020337 57 215 6.0 17.0 0.13 0.29 0.13 96 1006.7
20260904020136 57 175 8.0 17.0 0.13 0.29 0.13 96 1006.6
20260904015820 57 144 4.0 17.0 0.13 0.29 0.13 95 1006.6
20260904015629 57 214 9.0 17.0 0.06 0.29 0.11 95 1006.9
20260904015306 57 177 8.0 17.0 0.06 0.29 0.08 95 1006.8
20260904015122 57 184 16.0 17.0 0.06 0.29 0.06 95 1006.9
20260904014746 57 194 8.0 11.0 0.03 0.29 0.06 94 1006.9
20260904014615 57 194 7.0 11.0 0.03 0.29 0.05 94 1006.9
20260904014108 58 180 9.0 9.0 0.03 0.29 0.04 94 1006.9
20260904013713 58 205 9.0 14.0 0.02 0.29 0.03 94 1006.8
20260904013601 58 205 6.0 14.0 0.02 0.29 0.03 93 1006.8
20260904013155 58 205 9.0 14.0 0.02 0.29 0.03 93 1006.8
20260904013054 58 205 6.0 14.0 0.02 0.29 0.03 93 1006.8
20260904012638 58 175 7.0 14.0 0.01 0.29 0.02 93 1006.8
20260904012547 58 225 3.0 14.0 0.01 0.29 0.02 92 1006.8
20260904012122 58 162 9.0 14.0 0.01 0.29 0.02 92 1006.7
20260904012040 58 162 10.0 14.0 0.01 0.29 0.02 92 1006.7
20260904011604 59 229 6.0 12.0 0.00 0.29 0.01 91 1006.7
20260904011533 59 229 6.0 12.0 0.00 0.29 0.01 91 1006.8
20260904011048 59 207 5.0 12.0 0.00 0.29 0.00 91 1006.7
20260904011026 59 207 7.0 12.0 0.00 0.29 0.00 91 1006.7
20260904010518 59 246 9.0 12.0 0.00 0.29 0.00 91 1006.7
20260904010012 59 166 10.0 16.0 0.00 0.29 0.00 92 1006.7
20260904005457 59 221 7.0 16.0 0.00 0.29 0.00 92 1006.8
20260904004958 58 187 9.0 16.0 0.00 0.29 0.00 92 1006.8
20260904004939 58 239 9.0 16.0 0.00 0.29 0.00 92 1006.8
20260904004450 58 191 14.0 16.0 0.01 0.29 0.00 92 1006.9
20260904004422 58 229 7.0 15.0 0.01 0.29 0.00 92 1006.9
20260904003943 59 203 7.0 15.0 0.01 0.29 0.00 93 1006.8
20260904003905 59 203 10.0 15.0 0.01 0.29 0.00 93 1006.9
20260904003436 59 190 8.0 16.0 0.01 0.29 0.00 93 1006.9
20260904003348 59 271 3.0 16.0 0.01 0.29 0.00 93 1006.9
20260904002929 59 147 6.0 16.0 0.01 0.29 0.00 93 1006.9
20260904002831 59 147 8.0 16.0 0.01 0.29 0.00 93 1006.9
20260904002423 58 226 6.0 16.0 0.01 0.29 0.00 93 1006.8
20260904002314 58 226 7.0 16.0 0.01 0.29 0.00 93 1006.8
20260904001916 58 204 4.0 16.0 0.01 0.29 0.00 93 1006.8
20260904001757 58 210 10.0 16.0 0.01 0.29 0.00 93 1006.8
20260904001408 58 214 7.0 11.0 0.01 0.29 0.00 93 1006.9
20260904001240 58 186 10.0 11.0 0.01 0.29 0.00 93 1006.9
20260904000902 58 176 9.0 11.0 0.01 0.29 0.00 93 1006.9
20260904000724 58 184 7.0 11.0 0.01 0.29 0.00 93 1006.8
20260904000355 58 201 6.0 11.0 0.01 0.29 0.00 93 1006.9
20260904000206 58 170 8.0 11.0 0.01 0.29 0.29 93 1006.9
20260903235847 58 194 7.0 10.0 0.01 0.29 0.29 92 1006.9
20260903235650 58 190 10.0 17.0 0.01 0.29 0.29 92 1006.9
20260903235132 58 222 11.0 17.0 0.01 0.29 0.29 91 1007.0
20260903234833 59 182 8.0 17.0 0.01 0.29 0.29 90 1007.0
20260903234615 59 205 10.0 17.0 0.00 0.29 0.29 90 1007.0
20260903234059 59 191 12.0 17.0 0.00 0.28 0.28 89 1007.1
20260903233820 59 217 8.0 16.0 0.00 0.28 0.28 89 1007.1
20260903233313 59 173 8.0 16.0 0.00 0.28 0.28 89 1007.1
20260903233024 59 193 10.0 15.0 0.00 0.28 0.28 89 1007.1
20260903232806 59 215 10.0 15.0 0.00 0.28 0.28 89 1007.1
20260903232507 59 215 11.0 15.0 0.00 0.28 0.28 88 1007.2
20260903232258 59 187 10.0 21.0 0.00 0.28 0.28 88 1007.1
20260903231950 60 205 7.0 21.0 0.00 0.28 0.28 88 1007.2
20260903231751 60 175 11.0 21.0 0.00 0.28 0.28 88 1007.3
20260903231433 60 194 11.0 21.0 0.00 0.28 0.28 88 1007.2
20260903231244 60 229 12.0 21.0 0.00 0.28 0.28 88 1007.2
20260903230916 60 176 5.0 21.0 0.00 0.28 0.28 88 1007.1
20260903230400 61 240 8.0 17.0 0.00 0.28 0.28 88 1007.3
20260903225842 61 194 10.0 17.0 0.00 0.28 0.28 88 1007.1
20260903225723 61 193 11.0 17.0 0.00 0.28 0.28 88 1007.0
20260903225325 61 205 7.0 17.0 0.00 0.28 0.28 89 1007.1
20260903225216 61 197 9.0 17.0 0.00 0.28 0.28 89 1007.1
20260903224808 61 201 11.0 17.0 0.00 0.28 0.28 89 1007.1
20260903224709 61 201 11.0 17.0 0.00 0.28 0.28 89 1007.1
20260903224252 61 215 10.0 17.0 0.00 0.28 0.28 89 1007.1
20260903224202 61 215 10.0 17.0 0.00 0.28 0.28 89 1007.2
20260903223734 61 210 14.0 15.0 0.00 0.28 0.28 90 1007.1
20260903223655 61 210 11.0 17.0 0.00 0.28 0.28 90 1007.1
20260903223217 61 207 10.0 17.0 0.00 0.28 0.28 91 1007.2
20260903223148 61 207 11.0 17.0 0.00 0.28 0.28 91 1007.2
20260903222700 60 204 8.0 17.0 0.00 0.28 0.28 91 1007.2
20260903222642 60 204 9.0 17.0 0.00 0.28 0.28 91 1007.2
20260903221626 60 197 10.0 16.0 0.00 0.28 0.28 91 1007.2
20260903221120 60 222 7.0 16.0 0.00 0.28 0.28 90 1007.2
20260903221109 60 222 8.0 16.0 0.00 0.28 0.28 90 1007.2
20260903220613 60 169 9.0 17.0 0.00 0.30 0.28 90 1007.2
20260903220552 60 169 10.0 17.0 0.00 0.30 0.28 90 1007.2
20260903220107 60 204 11.0 17.0 0.00 0.30 0.28 90 1007.1
20260903220035 60 204 15.0 17.0 0.00 0.30 0.28 90 1007.2
20260903215559 60 235 8.0 17.0 0.00 0.30 0.28 90 1007.2
20260903215518 61 235 8.0 17.0 0.00 0.30 0.28 90 1007.2
20260903215052 61 212 13.0 17.0 0.00 0.30 0.28 90 1007.2
20260903215002 61 212 14.0 17.0 0.00 0.30 0.28 89 1007.2
20260903214545 61 218 10.0 15.0 0.00 0.30 0.28 89 1007.3
20260903214038 61 208 12.0 15.0 0.00 0.30 0.28 89 1007.4
20260903213927 61 207 7.0 15.0 0.00 0.30 0.28 89 1007.3
20260903213531 61 200 11.0 15.0 0.00 0.30 0.28 89 1007.4
20260903213410 61 200 13.0 15.0 0.00 0.30 0.28 89 1007.4
20260903213024 61 191 10.0 13.0 0.00 0.30 0.28 89 1007.3
20260903212853 61 191 10.0 20.0 0.00 0.30 0.28 89 1007.4
20260903212517 61 233 6.0 20.0 0.00 0.30 0.28 89 1007.5
20260903212010 62 186 9.0 20.0 0.00 0.30 0.28 89 1007.5
20260903211819 62 156 10.0 20.0 0.00 0.30 0.28 90 1007.4
20260903211503 61 166 7.0 20.0 0.00 0.30 0.28 90 1007.4
20260903211302 61 154 12.0 20.0 0.00 0.30 0.28 89 1007.5
20260903210745 62 170 12.0 19.0 0.00 0.33 0.28 90 1007.5
20260903210449 62 170 9.0 19.0 0.00 0.33 0.28 91 1007.6
20260903210228 62 214 13.0 19.0 0.00 0.33 0.28 91 1007.6
20260903205711 62 256 11.0 13.0 0.00 0.33 0.28 92 1007.3
20260903205435 62 184 10.0 18.0 0.00 0.33 0.28 93 1007.4
20260903204928 62 168 11.0 18.0 0.00 0.33 0.28 94 1007.5
20260903204637 61 172 9.0 18.0 0.00 0.33 0.28 94 1007.5
20260903204422 61 172 10.0 18.0 0.00 0.33 0.28 94 1007.6
20260903204120 60 170 10.0 18.0 0.00 0.33 0.28 94 1007.5
20260903203914 60 183 9.0 18.0 0.00 0.33 0.28 94 1007.5
20260903203603 60 173 11.0 16.0 0.00 0.33 0.28 93 1007.5
20260903203407 60 173 13.0 16.0 0.00 0.33 0.28 93 1007.6
20260903203046 61 212 9.0 15.0 0.00 0.33 0.28 94 1007.6
20260903202900 61 201 11.0 15.0 0.00 0.33 0.28 94 1007.5
20260903202529 61 189 12.0 15.0 0.00 0.33 0.28 95 1007.5
20260903202012 60 219 10.0 15.0 0.00 0.33 0.28 95 1007.6
20260903201457 60 140 7.0 12.0 0.00 0.33 0.28 96 1007.6
20260903200939 59 217 9.0 12.0 0.00 0.33 0.28 97 1007.7
20260903200832 59 166 7.0 12.0 0.00 0.33 0.28 97 1007.8
20260903200421 58 184 7.0 11.0 0.00 0.42 0.28 97 1007.8
20260903195904 58 158 8.0 9.0 0.00 0.42 0.28 98 1007.8
20260903195818 57 158 8.0 9.0 0.00 0.42 0.28 98 1007.9
20260903195347 57 168 8.0 8.0 0.00 0.42 0.28 98 1007.9
20260903195311 57 173 6.0 7.0 0.00 0.42 0.28 98 1007.9
20260903194831 57 177 5.0 15.0 0.00 0.42 0.28 98 1007.9
20260903194313 57 170 8.0 15.0 0.00 0.42 0.28 99 1007.9
20260903194257 57 170 6.0 15.0 0.00 0.42 0.28 99 1007.9
20260903193750 57 184 10.0 15.0 0.00 0.42 0.28 99 1007.9
20260903192736 57 180 6.0 13.0 0.00 0.42 0.28 99 1008.0
20260903192722 57 180 9.0 13.0 0.00 0.42 0.28 99 1008.0
20260903192205 57 141 7.0 13.0 0.00 0.42 0.28 99 1008.0
20260903191722 57 175 7.0 13.0 0.00 0.42 0.28 99 1008.1
20260903191648 57 175 6.0 13.0 0.00 0.42 0.28 99 1008.1
20260903191215 57 172 7.0 13.0 0.00 0.42 0.28 99 1008.1
20260903191131 57 163 12.0 13.0 0.00 0.42 0.28 99 1008.1
20260903190708 57 141 7.0 15.0 0.00 0.53 0.28 100 1008.0
20260903190614 57 141 7.0 15.0 0.00 0.53 0.28 100 1008.1
20260903190201 57 208 7.0 15.0 0.00 0.53 0.28 100 1008.1
20260903190057 57 208 8.0 15.0 0.00 0.53 0.28 100 1008.2
20260903185654 56 135 8.0 15.0 0.01 0.53 0.28 100 1008.2
20260903185147 56 113 11.0 15.0 0.01 0.53 0.28 100 1008.2
20260903185023 56 113 7.0 15.0 0.01 0.53 0.28 100 1008.2
20260903184133 56 189 10.0 14.0 0.01 0.53 0.28 100 1008.3
20260903183949 57 212 9.0 14.0 0.01 0.53 0.28 100 1008.3
20260903183626 57 186 10.0 12.0 0.01 0.53 0.28 100 1008.4
20260903183432 57 186 10.0 12.0 0.01 0.53 0.28 100 1008.3
20260903183119 57 154 8.0 11.0 0.01 0.53 0.28 100 1008.3
20260903182915 57 225 6.0 13.0 0.01 0.53 0.28 100 1008.3
20260903182612 57 182 6.0 13.0 0.02 0.53 0.28 100 1008.3
20260903182358 56 226 5.0 13.0 0.02 0.53 0.28 100 1008.2
20260903182105 56 176 8.0 13.0 0.02 0.53 0.28 100 1008.2
20260903181841 56 179 6.0 13.0 0.02 0.53 0.28 100 1008.1
20260903181558 56 176 3.0 13.0 0.03 0.53 0.28 100 1008.1
20260903181324 56 176 7.0 13.0 0.03 0.53 0.28 100 1008.1
20260903181051 56 154 11.0 11.0 0.03 0.53 0.28 100 1008.1
20260903180807 56 225 7.0 13.0 0.03 0.60 0.28 100 1008.2
20260903180544 56 179 3.0 13.0 0.03 0.60 0.28 100 1008.1
20260903180250 56 170 7.0 13.0 0.03 0.60 0.28 100 1008.1
20260903180037 56 170 7.0 13.0 0.03 0.60 0.28 100 1008.1
20260903175733 56 214 8.0 13.0 0.02 0.60 0.28 100 1008.2
20260903175530 56 176 6.0 13.0 0.02 0.60 0.28 100 1008.1
20260903175216 56 198 10.0 13.0 0.02 0.60 0.28 100 1008.1
20260903175023 56 190 6.0 10.0 0.02 0.60 0.28 100 1008.1
20260903174659 56 218 7.0 10.0 0.03 0.60 0.27 100 1008.1
20260903174516 56 218 10.0 10.0 0.03 0.60 0.27 100 1008.3
20260903174142 56 193 6.0 10.0 0.03 0.60 0.27 100 1008.2
20260903174009 55 193 9.0 10.0 0.03 0.60 0.27 100 1008.3
20260903173625 55 203 4.0 10.0 0.04 0.60 0.27 100 1008.2
20260903173502 55 203 7.0 10.0 0.04 0.60 0.27 100 1008.2
20260903173108 55 162 7.0 10.0 0.04 0.60 0.27 100 1008.3
20260903172955 55 166 5.0 9.0 0.04 0.60 0.27 100 1008.3
20260903172551 55 183 10.0 19.0 0.03 0.60 0.27 100 1008.4
20260903172448 55 183 10.0 19.0 0.03 0.60 0.27 100 1008.4
20260903172034 55 182 3.0 19.0 0.03 0.60 0.26 100 1008.3
20260903171941 55 198 2.0 19.0 0.03 0.60 0.26 100 1008.4
20260903171517 55 221 8.0 19.0 0.03 0.60 0.26 100 1008.4
20260903171434 56 221 7.0 19.0 0.03 0.60 0.26 100 1008.4
20260903171001 56 184 8.0 12.0 0.03 0.60 0.25 100 1008.3
20260903170927 56 184 8.0 12.0 0.03 0.60 0.25 100 1008.3
20260903170443 56 259 4.0 12.0 0.03 0.71 0.25 100 1008.1
20260903170420 56 259 4.0 12.0 0.03 0.71 0.25 100 1008.2
20260903165926 56 231 5.0 12.0 0.03 0.71 0.25 100 1008.1
20260903165913 56 179 6.0 12.0 0.03 0.71 0.25 100 1008.1
20260903165406 56 184 9.0 20.0 0.03 0.71 0.25 100 1008.1
20260903164859 56 0 0.0 20.0 0.03 0.71 0.25 100 1008.1
20260903164852 56 0 0.0 20.0 0.03 0.71 0.25 100 1008.1
20260903164352 56 0 0.0 20.0 0.02 0.71 0.25 100 1008.0
20260903164337 56 0 0.0 20.0 0.02 0.71 0.25 100 1008.0
20260903163845 56 204 4.0 20.0 0.02 0.71 0.24 100 1008.0
20260903163818 56 0 3.0 20.0 0.02 0.71 0.24 100 1008.0
20260903163339 56 221 3.0 16.0 0.01 0.71 0.23 100 1008.0
20260903163301 57 218 7.0 16.0 0.01 0.71 0.23 100 1008.0
20260903162744 57 152 8.0 16.0 0.01 0.71 0.23 100 1007.9
20260903162324 57 184 6.0 15.0 0.01 0.71 0.23 100 1007.9
20260903162227 57 180 10.0 15.0 0.01 0.71 0.23 100 1007.9
20260903161817 57 170 10.0 15.0 0.01 0.71 0.23 100 1007.9
20260903161710 57 204 7.0 15.0 0.00 0.71 0.22 100 1007.9
20260903161311 57 225 8.0 8.0 0.00 0.71 0.22 100 1007.9
20260903161153 57 187 9.0 22.0 0.00 0.71 0.22 100 1008.0
20260903160803 57 226 10.0 22.0 0.00 0.77 0.22 100 1008.0
20260903160636 57 215 6.0 22.0 0.00 0.77 0.22 100 1008.0
20260903160256 57 215 8.0 22.0 0.00 0.77 0.22 100 1008.0
20260903160119 57 215 9.0 22.0 0.00 0.77 0.22 100 1008.0
20260903155749 57 189 15.0 22.0 0.00 0.77 0.22 100 1008.0
20260903155602 57 189 13.0 22.0 0.00 0.77 0.22 100 1008.1
20260903155242 57 183 15.0 16.0 0.00 0.77 0.22 100 1008.0
20260903155045 57 198 8.0 16.0 0.00 0.77 0.22 100 1007.9
20260903154735 57 173 9.0 16.0 0.00 0.77 0.22 100 1008.0
20260903154528 57 173 10.0 16.0 0.00 0.77 0.22 100 1008.1
20260903154228 56 190 13.0 16.0 0.00 0.77 0.22 100 1008.1
20260903154011 56 170 7.0 16.0 0.00 0.77 0.22 100 1008.1
20260903153722 56 165 7.0 16.0 0.00 0.77 0.22 100 1008.0
20260903153454 56 205 6.0 16.0 0.00 0.77 0.22 100 1008.1
20260903153214 56 163 10.0 16.0 0.00 0.77 0.22 100 1008.0
20260903152937 56 163 9.0 16.0 0.00 0.77 0.22 100 1008.1
20260903152707 56 177 6.0 16.0 0.00 0.77 0.22 100 1008.1
20260903152420 56 214 6.0 16.0 0.00 0.77 0.22 100 1008.0
20260903152200 56 168 7.0 16.0 0.00 0.77 0.22 100 1008.1
20260903151903 56 203 4.0 16.0 0.00 0.77 0.22 100 1008.1
20260903151653 56 175 10.0 16.0 0.00 0.77 0.22 100 1008.0
20260903151346 56 217 3.0 15.0 0.00 0.77 0.22 100 1008.1
20260903151146 56 191 10.0 15.0 0.00 0.77 0.22 100 1008.0
20260903150829 56 180 9.0 15.0 0.00 0.77 0.22 100 1008.0
20260903150639 56 179 5.0 15.0 0.00 0.84 0.22 100 1008.0
20260903150312 56 187 6.0 15.0 0.00 0.84 0.22 100 1008.0
20260903150132 56 194 9.0 15.0 0.00 0.84 0.22 100 1007.9
20260903145755 56 166 7.0 15.0 0.00 0.84 0.22 100 1008.0
20260903145625 56 197 8.0 15.0 0.00 0.84 0.22 100 1007.9
20260903145238 56 221 10.0 15.0 0.00 0.84 0.22 100 1007.9
20260903145118 55 221 10.0 15.0 0.00 0.84 0.22 100 1007.8
20260903144204 55 184 6.0 12.0 0.00 0.84 0.22 100 1007.8
20260903143647 55 200 8.0 16.0 0.00 0.84 0.22 100 1007.7
20260903143557 55 200 9.0 16.0 0.00 0.84 0.22 100 1007.8
20260903143130 55 219 9.0 16.0 0.00 0.84 0.22 100 1007.7
20260903143050 55 186 10.0 16.0 0.00 0.84 0.22 100 1007.7
20260903142613 55 162 7.0 16.0 0.00 0.84 0.22 100 1007.7
20260903142543 55 162 9.0 16.0 0.00 0.84 0.22 100 1007.7
20260903142056 55 212 11.0 16.0 0.00 0.84 0.22 100 1007.7
20260903142036 55 212 12.0 16.0 0.00 0.84 0.22 100 1007.7
20260903141540 55 208 8.0 12.0 0.00 0.84 0.22 100 1007.7
20260903141529 55 208 8.0 12.0 0.00 0.84 0.22 100 1007.7
20260903141022 55 191 6.0 18.0 0.00 0.84 0.22 100 1007.7
20260903140515 55 197 5.0 18.0 0.00 0.84 0.22 100 1007.8
20260903140505 55 197 7.0 18.0 0.00 0.84 0.22 100 1007.8
20260903140009 55 211 10.0 18.0 0.00 0.84 0.22 100 1007.7
20260903135948 55 211 9.0 18.0 0.00 0.84 0.22 100 1007.7
20260903135501 55 187 11.0 18.0 0.00 0.84 0.22 100 1007.7
20260903135431 55 198 9.0 15.0 0.00 0.84 0.22 100 1007.7
20260903134914 55 194 5.0 13.0 0.00 0.84 0.22 100 1007.6
20260903134447 55 175 5.0 13.0 0.00 0.84 0.22 100 1007.6
20260903134358 55 175 3.0 13.0 0.00 0.84 0.22 100 1007.7
20260903133940 55 215 5.0 13.0 0.00 0.84 0.22 100 1007.7
20260903133841 55 204 5.0 13.0 0.00 0.84 0.22 100 1007.7
20260903133433 55 198 5.0 12.0 0.01 0.84 0.22 100 1007.6
20260903133323 55 253 4.0 12.0 0.01 0.84 0.22 100 1007.5
20260903132926 55 207 7.0 12.0 0.01 0.84 0.22 100 1007.5
20260903132806 55 190 8.0 12.0 0.01 0.84 0.22 100 1007.5
20260903132419 55 224 6.0 8.0 0.01 0.84 0.22 100 1007.5
20260903132249 55 194 8.0 14.0 0.01 0.84 0.22 100 1007.5
20260903131912 55 177 8.0 14.0 0.01 0.84 0.22 100 1007.5
20260903131733 55 215 13.0 14.0 0.01 0.84 0.22 100 1007.6
20260903131405 55 201 5.0 14.0 0.01 0.84 0.22 100 1007.6
20260903131214 55 191 6.0 14.0 0.01 0.84 0.22 100 1007.5
20260903130858 55 240 4.0 14.0 0.01 0.84 0.22 100 1007.5
20260903130658 55 201 11.0 14.0 0.02 0.83 0.22 100 1007.6
20260903130351 55 193 5.0 14.0 0.02 0.83 0.22 100 1007.6
20260903130140 55 207 11.0 14.0 0.02 0.83 0.22 100 1007.6
20260903125844 55 190 9.0 14.0 0.02 0.83 0.22 100 1007.6
20260903125623 55 193 9.0 14.0 0.02 0.83 0.22 100 1007.7
20260903125338 55 203 8.0 13.0 0.02 0.83 0.22 100 1007.6
20260903125107 55 207 8.0 13.0 0.02 0.83 0.22 100 1007.7
20260903124830 54 225 9.0 13.0 0.02 0.83 0.22 100 1007.6
20260903124549 54 210 5.0 13.0 0.02 0.83 0.22 100 1007.7
20260903124323 54 214 5.0 13.0 0.02 0.83 0.22 100 1007.7
20260903124032 54 182 7.0 13.0 0.02 0.83 0.22 100 1007.8
20260903123816 54 0 0.0 13.0 0.02 0.83 0.22 100 1007.8
20260903123515 54 170 5.0 13.0 0.01 0.83 0.22 100 1007.9
20260903123309 54 0 4.0 13.0 0.01 0.83 0.22 100 1007.7
20260903122958 54 201 7.0 13.0 0.01 0.83 0.22 100 1007.8
20260903122802 54 172 8.0 13.0 0.02 0.83 0.21 100 1007.7
20260903122441 54 210 6.0 9.0 0.02 0.83 0.21 100 1007.7
20260903122254 54 207 4.0 9.0 0.02 0.83 0.21 100 1007.7
20260903121924 54 207 7.0 12.0 0.02 0.83 0.21 100 1007.7
20260903121747 54 201 5.0 12.0 0.02 0.83 0.21 100 1007.8
20260903121407 55 204 4.0 12.0 0.02 0.83 0.21 100 1007.9
20260903121240 55 154 8.0 12.0 0.02 0.83 0.21 100 1007.9
20260903120850 55 183 6.0 12.0 0.02 0.83 0.21 100 1008.0
20260903120734 55 204 8.0 12.0 0.03 0.81 0.21 100 1007.9
20260903120226 55 212 4.0 11.0 0.03 0.81 0.20 100 1008.0
20260903115817 55 186 5.0 11.0 0.03 0.81 0.20 100 1008.0
20260903115719 55 161 5.0 11.0 0.03 0.81 0.20 100 1008.1
20260903115212 55 187 7.0 16.0 0.03 0.81 0.20 100 1008.1
20260903114742 55 233 8.0 16.0 0.05 0.81 0.20 100 1008.1
20260903114706 55 233 6.0 16.0 0.05 0.81 0.20 100 1008.1
20260903114225 55 193 9.0 16.0 0.05 0.81 0.20 100 1008.1
20260903114158 55 193 8.0 16.0 0.05 0.81 0.20 100 1008.1
20260903113708 55 198 8.0 13.0 0.07 0.81 0.20 100 1008.2
20260903113651 55 198 10.0 13.0 0.07 0.81 0.20 100 1008.2
20260903113144 55 200 8.0 13.0 0.07 0.81 0.20 100 1008.2
20260903112634 55 198 6.0 13.0 0.06 0.81 0.19 100 1008.1
20260903112130 55 187 10.0 17.0 0.06 0.81 0.19 100 1008.1
20260903112117 55 187 6.0 17.0 0.06 0.81 0.19 100 1008.1
20260903111623 55 200 7.0 17.0 0.06 0.81 0.19 100 1008.2
20260903111600 55 200 7.0 17.0 0.06 0.81 0.19 100 1008.2
20260903111118 55 214 5.0 17.0 0.06 0.81 0.19 100 1008.2
20260903111044 55 214 4.0 17.0 0.06 0.81 0.19 100 1008.2
20260903110610 55 222 12.0 17.0 0.04 0.75 0.19 100 1008.1
20260903110526 55 222 11.0 17.0 0.04 0.75 0.19 100 1008.1
20260903110009 55 221 8.0 9.0 0.04 0.75 0.17 100 1008.1
20260903105454 55 226 5.0 17.0 0.04 0.75 0.17 100 1008.2
20260903105048 55 189 7.0 17.0 0.04 0.75 0.17 100 1008.2
20260903104936 55 189 8.0 17.0 0.04 0.75 0.17 100 1008.2
20260903104541 55 183 9.0 17.0 0.02 0.75 0.17 100 1008.3
20260903104418 55 233 7.0 17.0 0.02 0.75 0.16 100 1008.2
20260903104034 56 186 17.0 17.0 0.02 0.75 0.16 100 1008.3
20260903103901 56 298 6.0 12.0 0.02 0.75 0.15 100 1008.3
20260903103527 56 215 6.0 12.0 0.00 0.75 0.14 100 1008.2
20260903103344 56 208 9.0 17.0 0.00 0.75 0.13 100 1008.2
20260903103021 56 260 8.0 17.0 0.00 0.75 0.13 100 1008.2
20260903102513 56 219 11.0 17.0 0.00 0.75 0.13 100 1008.1
20260903102311 56 194 5.0 17.0 0.00 0.75 0.13 100 1008.1
20260903102007 56 205 9.0 17.0 0.00 0.75 0.13 100 1008.1
20260903101753 56 218 14.0 17.0 0.00 0.75 0.13 100 1008.2
20260903101459 56 203 12.0 17.0 0.00 0.75 0.13 100 1008.2
20260903101236 56 204 8.0 17.0 0.00 0.75 0.13 100 1008.2
20260903100954 56 204 7.0 17.0 0.00 0.75 0.13 100 1008.2
20260903100719 56 166 7.0 17.0 0.00 0.75 0.13 100 1008.2
20260903100446 56 233 11.0 17.0 0.00 0.75 0.13 100 1008.2
20260903100202 56 175 7.0 17.0 0.00 0.75 0.13 100 1008.2
20260903095939 56 196 6.0 17.0 0.00 0.75 0.13 100 1008.2
20260903095645 56 184 11.0 17.0 0.00 0.75 0.13 100 1008.2
20260903095431 56 205 7.0 16.0 0.00 0.75 0.13 100 1008.1
20260903095128 56 179 9.0 16.0 0.00 0.75 0.13 100 1008.1
20260903094924 56 172 6.0 16.0 0.00 0.75 0.13 100 1008.1
20260903094611 56 207 11.0 16.0 0.00 0.75 0.13 100 1008.1
20260903094417 56 208 7.0 13.0 0.00 0.75 0.13 100 1008.1
20260903094054 56 190 6.0 16.0 0.00 0.75 0.13 100 1008.2
20260903093910 56 190 10.0 16.0 0.00 0.75 0.13 100 1008.3
20260903093537 56 186 10.0 16.0 0.00 0.75 0.13 100 1008.2
20260903093403 56 186 7.0 16.0 0.00 0.75 0.13 100 1008.2
20260903093020 56 211 11.0 16.0 0.00 0.75 0.13 100 1008.2
20260903092856 56 201 9.0 16.0 0.00 0.75 0.13 100 1008.2
20260903092503 56 194 11.0 16.0 0.00 0.75 0.13 100 1008.3
20260903092349 56 266 9.0 13.0 0.00 0.75 0.13 100 1008.3
20260903091946 56 219 7.0 20.0 0.00 0.75 0.13 100 1008.2
20260903091842 56 201 7.0 20.0 0.00 0.75 0.13 100 1008.2
20260903091429 56 189 6.0 20.0 0.00 0.75 0.13 100 1008.2
20260903090912 55 201 9.0 20.0 0.00 0.75 0.13 100 1008.3
20260903090829 55 187 6.0 20.0 0.00 0.75 0.13 100 1008.3
20260903090355 55 257 13.0 20.0 0.00 0.75 0.13 100 1008.5
20260903090321 55 196 13.0 20.0 0.00 0.75 0.13 100 1008.5
20260903085838 55 165 7.0 15.0 0.00 0.75 0.13 100 1008.5
20260903085815 55 0 0.0 15.0 0.00 0.75 0.13 100 1008.5
20260903085321 55 0 0.0 15.0 0.00 0.75 0.13 100 1008.5
20260903085307 55 205 10.0 15.0 0.00 0.75 0.13 100 1008.5
20260903084804 55 201 10.0 15.0 0.00 0.75 0.13 100 1008.5
20260903084800 55 204 5.0 15.0 0.00 0.75 0.13 100 1008.5
20260903084253 55 193 10.0 15.0 0.00 0.75 0.13 100 1008.6
20260903084247 55 193 12.0 15.0 0.00 0.75 0.13 100 1008.6
20260903083746 55 187 10.0 13.0 0.00 0.75 0.13 100 1008.6
20260903083731 55 187 9.0 13.0 0.00 0.75 0.13 100 1008.5
20260903083239 55 179 6.0 13.0 0.00 0.75 0.13 100 1008.5
20260903083213 55 179 11.0 13.0 0.00 0.75 0.13 100 1008.6
20260903082732 55 201 11.0 17.0 0.00 0.75 0.13 100 1008.5
20260903082656 55 177 9.0 17.0 0.00 0.75 0.13 100 1008.5
20260903082139 55 175 8.0 17.0 0.00 0.75 0.13 100 1008.5
20260903081718 55 179 11.0 17.0 0.00 0.75 0.13 100 1008.6
20260903081622 55 179 12.0 17.0 0.00 0.75 0.13 100 1008.6
20260903081211 55 187 11.0 17.0 0.00 0.75 0.13 100 1008.7
20260903081105 55 219 13.0 15.0 0.00 0.75 0.13 100 1008.7
20260903080704 55 252 10.0 14.0 0.00 0.75 0.13 100 1008.6
20260903080548 55 252 9.0 14.0 0.00 0.75 0.13 100 1008.6
20260903080157 56 221 10.0 11.0 0.00 0.75 0.13 100 1008.6
20260903080031 55 221 10.0 11.0 0.00 0.75 0.13 100 1008.6
20260903075650 55 187 7.0 24.0 0.00 0.75 0.13 100 1008.6
20260903075514 55 187 14.0 24.0 0.00 0.75 0.13 100 1008.6
20260903075143 55 212 10.0 24.0 0.00 0.75 0.13 100 1008.6
20260903074957 56 197 10.0 24.0 0.00 0.75 0.13 100 1008.6
20260903074636 55 212 11.0 24.0 0.00 0.75 0.13 100 1008.6
20260903074440 55 180 5.0 24.0 0.00 0.75 0.13 100 1008.6
20260903074129 55 191 15.0 24.0 0.00 0.75 0.13 100 1008.6
20260903073923 55 208 4.0 16.0 0.00 0.75 0.13 100 1008.7
20260903073622 55 196 10.0 15.0 0.00 0.75 0.13 100 1008.6
20260903073406 55 186 10.0 15.0 0.00 0.75 0.13 100 1008.6
20260903073138 55 215 7.0 15.0 0.00 0.75 0.13 100 1008.6
20260903073116 55 215 7.0 15.0 0.00 0.75 0.13 100 1008.6
20260903072848 55 215 7.0 15.0 0.00 0.75 0.13 100 1008.6
20260903072332 55 197 8.0 13.0 0.00 0.75 0.13 100 1008.6
20260903072101 55 169 7.0 13.0 0.00 0.75 0.13 100 1008.6
20260903071815 55 0 0.0 13.0 0.00 0.75 0.13 100 1008.5
20260903071555 55 186 11.0 13.0 0.00 0.75 0.13 100 1008.5
20260903071258 56 197 10.0 20.0 0.00 0.75 0.13 100 1008.5
20260903071047 56 197 13.0 20.0 0.00 0.75 0.13 100 1008.5
20260903070741 55 186 10.0 20.0 0.00 0.75 0.13 100 1008.5
20260903070540 55 186 11.0 20.0 0.00 0.75 0.13 100 1008.5
20260903070224 56 170 9.0 20.0 0.00 0.75 0.13 100 1008.5
20260903070033 56 176 5.0 20.0 0.00 0.75 0.13 100 1008.5
20260903065707 56 203 14.0 20.0 0.00 0.75 0.13 100 1008.5
20260903065526 56 203 13.0 20.0 0.00 0.75 0.13 100 1008.4
20260903065150 56 215 5.0 16.0 0.00 0.75 0.13 100 1008.5
20260903065019 56 183 7.0 16.0 0.00 0.75 0.13 100 1008.5
20260903064633 56 212 8.0 16.0 0.00 0.75 0.13 100 1008.4
20260903064512 56 183 6.0 16.0 0.00 0.75 0.13 100 1008.4
20260903064116 56 180 11.0 16.0 0.00 0.75 0.13 100 1008.4
20260903064005 56 201 7.0 9.0 0.00 0.75 0.13 100 1008.5
20260903063559 56 204 8.0 20.0 0.00 0.75 0.13 100 1008.4
20260903063458 56 204 8.0 20.0 0.00 0.75 0.13 100 1008.4
20260903063042 56 182 8.0 20.0 0.00 0.75 0.13 100 1008.4
20260903062952 56 169 9.0 20.0 0.00 0.75 0.13 100 1008.5
20260903062525 56 189 15.0 20.0 0.00 0.75 0.13 100 1008.5
20260903062444 56 204 7.0 20.0 0.00 0.75 0.13 100 1008.5
20260903062009 56 226 10.0 13.0 0.00 0.75 0.13 100 1008.5
20260903061937 56 226 5.0 13.0 0.00 0.75 0.13 100 1008.5
20260903061451 56 203 6.0 13.0 0.00 0.75 0.13 100 1008.5
20260903061430 56 203 9.0 13.0 0.00 0.75 0.13 100 1008.5
20260903060923 56 200 5.0 13.0 0.00 0.75 0.13 100 1008.5
20260903060416 56 208 9.0 11.0 0.00 0.75 0.13 100 1008.5
20260903055900 56 205 9.0 15.0 0.00 0.75 0.13 100 1008.6
20260903055402 56 208 8.0 15.0 0.00 0.75 0.13 100 1008.5
20260903055343 56 208 9.0 15.0 0.00 0.75 0.13 100 1008.5
20260903054855 56 212 3.0 15.0 0.00 0.75 0.13 100 1008.5
20260903054348 56 201 4.0 12.0 0.00 0.75 0.13 100 1008.7
20260903053842 56 193 5.0 12.0 0.00 0.75 0.13 100 1008.7
20260903053752 56 198 8.0 12.0 0.00 0.75 0.13 100 1008.7
20260903053334 56 186 4.0 12.0 0.00 0.75 0.13 100 1008.8
20260903053235 56 172 5.0 12.0 0.00 0.75 0.13 100 1008.8